SCP
0 0 0 0 0 0 0 0 0 0 0 0 0 0 0 0 0 0 0 0 0 0 0 0 0 0 0 0 0 0 0 0 0 0 0 0 0 0 0 0 0 0 0 0
0 0 0 0 0 0 0 0 0 0 0 0 0 0 0 0 0 0 0 0 0 0 0 0 0 0 0 0 0 0 0 0 0 0 0 0 0 0 0 0 0 0 0 0
0 0 0 0 0 0 0 0 0 0 0 0 0 0 0 0 0 0 0 0 0 0 0 0 0 0 0 0 0 0 0 0 0 0 0 0 0 0 0 0 0 0 0 0
0 0 0 0 0 0 0 0 0 0 0 0 0 0 0 0 0 0 0 0 0 0 0 0 0 0 0 0 0 0 0 0 0 0 0 0 0 0 0 0 0 0 0 0
0 0 0 0 0 0 0 0 0 0 0 0 0 0 0 0 0 0 0 0 0 0 0 0 0 0 0 0 0 0 0 0 0 0 0 0 0 0 0 0 0 0 0 0
0 0 0 0 0 0 0 0 0 0 0 0 0 0 0 0 0 0 0 0 0 0 0 0 0 0 0 0 0 0 0 0 0 0 0 0 0 0 0 0 0 0 0 0
0 0 0 0 0 0 0 0 0 0 0 0 0 0 0 0 0 0 0 0 0 0 0 0 0 0 0 0 0 0 0 0 0 0 0 0 0 0 0 0 0 0 0 0
0 0 0 0 0 0 0 0 0 0 0 0 0 0 0 0 0 0 0 0 0 0 0 0 0 0 0 0 0 0 0 0 0 0 0 0 0 0 0 0 0 0 0 0
0 0 0 0 0 0 0 0 0 0 0 0 0 0 0 0 0 0 0 0 0 0 0 0 0 0 0 0 0 0 0 0 0 0 0 0 0 0 0 0 0 0 0 0
0 0 0 0 0 0 0 0 0 0 0 0 0 0 0 0 0 0 0 0 0 0 0 0 0 0 0 0 0 0 0 0 0 0 0 0 0 0 0 0 0 0 0 0
0 0 0 0 0 0 0 0 0 0 0 0 0 0 0 0 0 0 0 0 0 0 0 0 0 0 0 0 0 0 0 0 0 0 0 0 0 0 0 0 0 0 0 0
0 0 0 0 0 0 0 0 0 0 0 0 0 0 0 0 0 0 0 0 0 0 0 0 0 0 0 0 0 0 0 0 0 0 0 0 0 0 0 0 0 0 0 0
0 0 0 0 0 0 0 0 0 0 0 0 0 0 0 0 0 0 0 0 0 0 0 0 0 0 0 0 0 0 0 0 0 0 0 0 0 0 0 0 0 0 0 0
0 0 0 0 0 0 0 0 0 0 0 0 0 0 0 0 0 0 0 0 0 0 0 0 0 0 0 0 0 0 0 0 0 0 0 0 0 0 0 0 0 0 0 0
0 0 0 0 0 0 0 0 0 0 0 0 0 0 0 0 0 0 0 0 0 0 0 0 0 0 0 0 0 0 0 0 0 0 0 0 0 0 0 0 0 0 0 0
0 0 0 0 0 0 0 0 0 0 0 0 0 0 0 0 0 0 0 0 0 0 0 0 0 0 0 0 0 0 0 0 0 0 0 0 0 0 0 0 0 0 0 0
0 0 0 0 0 0 0 0 0 0 0 0 0 0 0 0 0 0 0 0 0 0 0 0 0 0 0 0 0 0 0 0 0 0 0 0 0 0 0 0 0 0 0 0
0 0 0 0 0 0 0 0 0 0 0 0 0 0 0 0 0 0 0 0 0 0 0 0 0 0 0 0 0 0 0 0 0 0 0 0 0 0 0 0 0 0 0 0
0 0 0 0 0 0 0 0 0 0 0 0 0 0 0 0 0 0 0 0 0 0 0 0 0 0 0 0 0 0 0 0 0 0 0 0 0 0 0 0 0 0 0 0
0 0 0 0 0 0 0 0 0 0 0 0 0 0 0 0 0 0 0 0 0 0 0 0 0 0 0 0 0 0 0 0 0 0 0 0 0 0 0 0 0 0 0 0
0 0 0 0 0 0 0 0 0 0 0 0 0 0 0 0 0 0 0 0 0 0 0 0 0 0 0 0 0 0 0 0 0 0 0 0 0 0 0 0 0 0 0 0
0 0 0 0 0 0 0 0 0 0 0 0 0 0 0 0 0 0 0 0 0 0 0 0 0 0 0 0 0 0 0 0 0 0 0 0 0 0 0 0 0 0 0 0
0 0 0 0 0 0 0 0 0 0 0 0 0 0 0 0 0 0 0 0 0 0 -0 -0 -0 0 -0 0 0 0 0 0 0 0 0 0 0 0 0 0 0 0 0 0
0 0 0 0 0 0 0 0 0 0 0 0 0 0 0 0 0 0 0 0 0 0 0 -0 0 0 0 0 0 0 0 0 0 0 0 0 0 0 0 0 0 0 0 0
0 0 0 0 0 0 0 0 0 0 0 0 0 0 0 0 0 0 0 0 0 0 0 0 0 0 0 0 0 0 0 0 0 0 0 0 0 0 0 0 0 0 0 0
0 0 0 0 0 0 0 0 0 0 0 0 0 0 0 0 0 0 0 0 0 0 0 0 0 0 0 0 0 0 0 0 0 0 0 0 0 0 0 0 0 0 0 0
Wind_Speed
4 4 6 8 10 7 4 5 4 2 4 2 7 10 10 9 8 9 10 9 9 10 10 10 12 13 11 10 11 12 12 12 9 7 7 7 6 5 4 4 6 8 9 10
3 7 8 3 1 2 2 4 6 2 3 1 6 12 11 11 12 11 11 10 10 10 9 10 11 12 14 13 12 11 12 13 12 10 8 5 5 5 5 4 5 7 9 11
8 2 5 4 3 2 4 6 7 5 2 4 4 10 11 12 16 13 10 9 9 10 10 8 9 12 13 13 14 12 12 12 12 10 6 4 4 3 5 7 7 8 9 11
8 3 3 4 6 6 6 5 5 4 4 4 4 7 6 7 6 8 8 8 10 11 10 8 8 10 12 13 11 11 10 10 11 11 10 10 10 11 11 7 7 8 9 11
6 6 6 6 6 8 2 4 2 1 3 5 4 6 8 7 8 8 9 10 11 10 8 7 7 9 9 10 10 10 10 10 10 11 11 11 10 8 5 5 8 9 9 10
0 2 2 2 1 5 8 4 3 1 2 6 7 8 9 7 9 8 8 7 5 3 1 1 2 3 4 7 8 8 9 9 9 10 11 11 11 8 7 8 8 8 6 7
6 4 2 3 5 4 5 5 2 3 4 9 7 9 10 7 4 2 1 2 3 2 2 1 2 2 3 5 7 7 8 8 9 9 10 10 10 9 10 8 8 8 7 7
10 9 13 9 8 9 9 9 9 8 6 5 3 11 9 1 2 2 1 4 5 4 2 3 3 4 5 6 7 7 8 8 8 9 9 8 9 7 7 8 7 9 8 8
7 6 8 10 4 10 8 9 6 3 2 4 8 8 5 4 3 4 6 5 5 3 2 2 3 4 5 6 7 7 7 7 8 8 8 8 9 9 8 8 8 7 7 8
3 2 4 4 2 3 2 4 4 6 6 7 10 10 7 5 9 8 5 3 3 2 2 1 2 2 2 3 4 5 7 7 7 7 7 7 8 9 8 7 8 8 8 9
5 3 3 3 8 9 6 4 6 6 6 7 7 11 4 3 5 5 2 2 3 3 2 2 1 1 2 2 3 4 5 6 7 7 7 8 7 8 8 9 9 8 7 9
4 2 4 7 6 5 9 11 9 6 7 4 5 14 3 4 6 5 3 2 2 2 2 2 1 1 2 3 4 5 6 7 7 7 7 8 8 8 9 10 9 8 9 9
5 5 2 1 2 2 4 7 9 7 4 6 8 16 2 4 4 2 1 3 4 3 3 3 2 2 3 5 6 6 7 8 7 7 8 8 9 10 11 10 9 8 9 9
3 4 7 9 4 4 4 6 7 7 8 10 15 21 18 4 4 4 5 5 5 4 4 4 4 5 5 5 6 7 8 8 8 8 9 10 11 11 11 9 9 9 9 9
3 4 6 8 7 3 4 6 9 12 13 12 13 18 27 9 7 7 7 7 7 6 6 6 6 6 6 6 6 7 8 8 8 9 10 13 11 9 9 9 9 8 8 9
4 3 2 6 7 6 8 10 12 13 13 15 16 23 19 12 9 9 8 9 9 8 8 8 8 8 7 7 7 7 7 7 7 9 11 10 9 8 9 8 8 8 8 8
5 5 3 4 2 2 11 14 14 13 13 12 18 21 14 14 13 9 7 8 9 9 10 10 9 9 8 7 6 7 7 6 6 8 8 8 8 8 8 8 8 9 9 8
5 5 3 3 2 11 11 6 12 15 17 15 14 14 12 11 11 9 6 7 8 9 10 10 9 9 8 7 7 6 5 4 5 7 8 7 7 8 7 7 9 8 7 7
7 6 4 4 6 8 8 7 6 8 11 6 6 7 8 9 9 8 5 7 8 9 8 8 7 8 8 8 7 6 6 5 5 7 7 6 6 7 7 8 8 7 6 6
12 10 7 6 6 9 8 3 2 4 8 3 4 5 7 8 6 7 10 12 11 10 8 8 7 7 7 7 6 6 7 6 7 7 6 5 5 6 7 7 6 5 5 6
8 9 13 13 10 9 8 4 1 5 5 1 3 4 5 5 6 10 12 11 9 9 9 7 7 6 6 6 6 7 7 7 6 5 4 3 4 5 5 4 4 4 4 4
8 7 10 9 10 11 4 1 1 1 0 1 3 3 5 7 9 10 11 11 10 9 8 7 6 7 6 6 6 7 7 6 4 3 2 2 1 1 2 3 3 4 5 4
7 7 5 7 7 3 1 1 1 1 2 3 4 5 6 8 9 10 10 11 10 9 7 6 6 7 6 5 5 7 7 5 3 2 2 1 1 1 3 4 4 4 4 3
4 2 3 5 5 3 3 2 1 2 2 4 6 7 6 8 10 11 10 10 10 9 8 5 6 7 7 5 4 5 6 4 2 1 1 1 2 2 2 2 3 3 3 3
3 1 2 5 5 5 4 3 3 4 6 7 8 8 8 9 10 11 10 10 9 9 7 5 5 6 6 5 5 5 5 3 1 0 1 1 2 2 2 2 2 3 2 3
6 5 4 6 5 5 7 7 7 8 9 9 10 11 10 8 10 10 10 9 7 7 6 6 5 4 4 4 5 6 6 4 1 1 1 1 1 2 2 3 3 4 3 4
Wind_Direction
182 207 203 206 215 252 346 326 294 72 108 195 249 262 263 258 231 228 231 234 236 233 222 204 193 188 186 188 189 187 187 185 183 186 190 193 200 194 195 192 185 184 182 179
147 232 229 233 208 235 269 293 299 318 111 187 273 273 266 252 249 237 236 235 234 239 233 214 194 181 184 189 192 193 192 188 189 195 191 186 181 192 194 186 192 190 184 181
201 183 195 156 134 184 229 236 255 272 187 213 266 284 251 241 233 234 232 240 247 244 239 226 198 185 183 189 193 198 197 193 191 185 174 169 170 168 187 196 200 199 190 185
228 196 129 169 194 192 239 231 231 287 320 284 224 287 287 285 253 219 228 239 248 249 244 234 209 193 189 192 188 192 195 195 191 184 185 184 192 199 202 195 193 191 193 191
217 167 158 190 201 195 160 54 91 211 252 279 244 261 267 250 255 233 224 228 238 239 235 230 213 197 190 181 180 185 191 196 193 190 192 195 205 208 194 186 186 191 196 197
188 60 155 176 111 162 123 99 86 129 218 257 206 226 264 219 229 231 220 223 242 255 291 35 96 130 150 162 172 178 188 196 194 194 195 200 205 203 201 196 191 191 193 199
199 188 151 106 110 113 149 145 167 222 222 247 193 218 248 207 205 183 152 305 335 3 25 49 104 139 162 168 176 181 188 198 195 197 201 202 204 204 211 206 194 187 189 200
199 204 178 182 172 166 195 186 176 194 220 262 210 232 252 199 125 122 234 262 277 283 267 230 211 199 198 193 185 185 196 203 198 200 204 203 202 207 216 212 198 195 197 199
220 219 159 175 171 158 174 219 217 225 268 292 261 260 270 163 197 237 251 268 279 281 267 239 230 217 203 194 193 193 198 205 204 202 202 206 205 209 215 214 204 196 193 187
270 261 105 101 56 297 211 179 158 188 201 238 261 253 241 205 224 239 263 290 325 359 348 287 256 235 202 184 185 191 200 206 207 205 206 210 211 212 214 214 212 202 191 182
210 204 143 149 197 191 180 206 193 190 187 189 255 260 188 146 160 164 162 66 31 10 349 333 334 100 129 135 167 197 207 210 209 209 210 212 215 215 214 218 216 204 193 185
181 206 209 210 205 218 204 203 195 193 226 217 237 263 138 80 90 98 73 18 348 330 329 330 320 165 173 198 208 212 213 216 214 208 211 216 216 217 221 223 216 203 198 191
142 159 166 285 211 208 232 221 216 226 218 218 227 262 118 114 81 74 344 305 303 291 290 299 292 261 235 222 215 217 217 218 212 205 210 217 219 219 224 224 216 205 197 191
107 187 201 202 162 159 206 232 229 219 226 237 237 260 271 276 316 309 295 289 293 290 274 272 272 267 260 242 225 220 223 217 209 205 210 220 224 222 223 220 213 206 196 191
131 211 241 267 291 302 260 251 244 236 235 240 251 259 269 282 297 303 308 306 300 297 294 287 282 276 275 270 257 238 231 220 208 208 216 226 227 223 219 217 212 204 197 195
146 193 235 261 261 274 271 254 247 248 247 252 264 266 272 297 298 298 303 309 310 311 312 308 303 296 285 276 270 260 248 234 215 217 225 228 225 220 219 216 208 201 198 192
165 164 185 245 200 251 251 234 232 236 235 239 252 263 283 287 288 294 304 310 309 312 312 308 304 300 296 291 283 272 265 251 229 230 233 229 225 223 219 210 203 203 198 190
172 161 189 239 180 228 239 219 217 232 241 239 247 262 274 282 291 289 292 299 305 314 314 315 317 317 318 318 312 303 298 279 252 244 242 235 228 228 219 208 208 204 192 193
204 185 200 212 234 260 268 244 229 238 251 247 255 282 303 311 305 290 342 347 326 321 319 316 316 313 317 320 325 325 307 291 269 257 250 239 228 227 218 213 210 198 189 192
209 203 204 212 222 232 241 231 243 242 252 14 14 349 342 349 322 305 345 335 328 329 330 325 321 318 318 326 341 324 303 293 277 268 260 245 226 221 220 215 204 189 186 189
184 203 216 222 232 249 257 261 193 216 226 353 15 356 343 322 286 299 313 314 315 315 315 317 317 317 322 336 336 311 302 294 291 288 274 253 228 219 213 200 183 171 170 170
179 186 202 210 225 240 258 51 190 191 8 327 334 329 315 297 294 301 306 308 311 312 314 321 319 314 322 332 324 306 301 307 311 310 304 287 234 181 164 162 158 155 158 166
210 201 195 198 215 213 102 118 93 63 329 313 307 306 304 298 296 300 302 304 307 308 310 314 307 303 311 326 322 303 308 319 326 342 344 359 55 106 133 146 148 146 151 160
233 222 231 259 263 297 333 357 5 348 301 296 296 294 293 288 291 296 296 297 301 303 305 306 303 301 307 324 322 310 315 321 330 351 32 86 99 97 106 120 134 145 155 160
217 188 231 259 285 317 298 294 301 310 307 303 301 295 288 285 286 288 291 293 296 300 304 303 295 296 306 324 325 328 325 327 322 109 98 102 113 121 116 113 126 137 149 166
216 213 224 245 257 267 276 283 291 295 295 295 295 293 286 275 277 284 285 288 293 300 309 310 309 308 319 333 331 334 329 319 285 179 142 135 127 118 119 116 98 105 115 143